Location: Praha
(50.0830°N, 14.4670°E)
Time: 05:50:27
(UTC+01:00)

ISS - Pass Details

Date: 25 November 2019
Orbit: 411 x 421 km, 51.6° (Epoch: 15 December)

Event Time Altitude Azimuth Distance (km) Brightness Sun altitude
Rises 19:12:15 0° 256° (WSW) 2,357 1.2 -29.0°
Reaches altitude 10° 19:14:20 10° 258° (WSW) 1,497 -0.1 -29.4°
Enters shadow 19:15:06 16° 258° (WSW) 1,188 -0.7 -29.5°
